AFR45JD LFPG-LGIR

Flight info

Callsign AFR45JD
Flight time 3h 10m
Altitude 35000
Route LANVI DCT BEGAR DCT TRA DCT GAMSA DCT GEDSO DCT VEKEN DCT MAXUR DCT GACMO DCT MAVAR DCT BITLA DCT KEA UL607 GIVIS Y145 ALIKI L617 XAVIS
Aircraft A320/M-SDE2E3FGIJ1RWY/HB1

Departure

Time 2026-05-08 12:53
Airport Charles de Gaulle International Airport (LFPG)

Arrival

Time 2026-05-08 16:04
Airport Heraklion International Nikos Kazantzakis Airport (LGIR)
Time Latitude Longitude Altitude Speed Heading
2026-05-08 12:09 49.00618 2.57329 355 ft 0 kts 85°
2026-05-08 12:40 49.00617 2.57321 354 ft 4 kts 84°
2026-05-08 12:40 49.00613 2.57281 354 ft 4 kts 71°
2026-05-08 12:40 49.00601 2.57248 364 ft 4 kts 27°
2026-05-08 12:40 49.00590 2.57243 357 ft 0 kts 353°
2026-05-08 12:43 49.00602 2.57241 361 ft 3 kts 353°
2026-05-08 12:43 49.00618 2.57238 354 ft 2 kts 354°
2026-05-08 12:43 49.00624 2.57237 358 ft 0 kts 354°
2026-05-08 12:44 49.00644 2.57234 354 ft 7 kts 354°
2026-05-08 12:44 49.00678 2.57222 361 ft 6 kts 328°
2026-05-08 12:44 49.00674 2.57120 357 ft 13 kts 253°
2026-05-08 12:44 49.00657 2.56999 357 ft 12 kts 262°
2026-05-08 12:45 49.00647 2.56848 354 ft 15 kts 266°
2026-05-08 12:45 49.00639 2.56697 359 ft 15 kts 265°
2026-05-08 12:45 49.00630 2.56521 354 ft 17 kts 265°
2026-05-08 12:45 49.00621 2.56348 356 ft 16 kts 265°
2026-05-08 12:46 49.00611 2.56162 354 ft 17 kts 265°
2026-05-08 12:46 49.00584 2.55994 357 ft 15 kts 251°
2026-05-08 12:46 49.00566 2.55832 361 ft 16 kts 265°
2026-05-08 12:46 49.00557 2.55648 354 ft 19 kts 265°
2026-05-08 12:47 49.00547 2.55460 354 ft 17 kts 263°
2026-05-08 12:47 49.00481 2.55337 358 ft 15 kts 198°
2026-05-08 12:47 49.00382 2.55358 358 ft 14 kts 163°
2026-05-08 12:47 49.00272 2.55406 357 ft 18 kts 164°
2026-05-08 12:48 49.00149 2.55459 356 ft 19 kts 164°
2026-05-08 12:48 49.00021 2.55515 358 ft 19 kts 163°
2026-05-08 12:48 48.99893 2.55582 358 ft 15 kts 142°
2026-05-08 12:48 48.99839 2.55721 360 ft 16 kts 111°
2026-05-08 12:49 48.99785 2.55806 360 ft 11 kts 174°
2026-05-08 12:49 48.99724 2.55812 354 ft 7 kts 175°
2026-05-08 12:49 48.99715 2.55813 354 ft 0 kts 175°
2026-05-08 12:51 48.99701 2.55815 354 ft 6 kts 175°
2026-05-08 12:51 48.99652 2.55821 354 ft 8 kts 175°
2026-05-08 12:52 48.99605 2.55875 355 ft 11 kts 108°
2026-05-08 12:52 48.99610 2.56023 354 ft 33 kts 85°
2026-05-08 12:52 48.99650 2.56723 356 ft 97 kts 85°
2026-05-08 12:53 48.99719 2.58034 355 ft 149 kts 85°
2026-05-08 12:53 48.99815 2.59773 584 ft 170 kts 84°
2026-05-08 12:53 48.99908 2.61575 1190 ft 172 kts 85°
2026-05-08 12:53 49.00012 2.63409 1822 ft 176 kts 84°
2026-05-08 12:54 49.00120 2.65279 2425 ft 179 kts 85°
2026-05-08 12:54 49.00224 2.67174 3018 ft 180 kts 85°
2026-05-08 12:54 49.00322 2.69075 3597 ft 182 kts 85°
2026-05-08 12:54 49.00415 2.71091 3880 ft 200 kts 86°
2026-05-08 12:55 49.00523 2.73323 4046 ft 223 kts 85°
2026-05-08 12:55 49.00645 2.75772 4290 ft 247 kts 85°
2026-05-08 12:55 49.00679 2.78482 4732 ft 262 kts 97°
2026-05-08 12:55 49.00410 2.81254 5456 ft 267 kts 99°
2026-05-08 12:56 49.00113 2.84070 6234 ft 270 kts 99°
2026-05-08 12:56 48.99806 2.86907 6962 ft 274 kts 99°
2026-05-08 12:56 48.99494 2.89793 7648 ft 278 kts 100°
2026-05-08 12:56 48.99178 2.92720 8328 ft 283 kts 100°
2026-05-08 12:57 48.98857 2.95707 9007 ft 287 kts 100°
2026-05-08 12:57 48.98566 2.98737 9719 ft 291 kts 98°
2026-05-08 12:57 48.98308 3.01822 10318 ft 300 kts 98°
2026-05-08 12:57 48.98051 3.05045 10472 ft 323 kts 98°
2026-05-08 12:58 48.97772 3.08549 10679 ft 341 kts 98°
2026-05-08 12:58 48.97479 3.12173 11228 ft 348 kts 98°
2026-05-08 12:58 48.97176 3.15840 11853 ft 351 kts 98°
2026-05-08 12:58 48.96862 3.19548 12493 ft 355 kts 99°
2026-05-08 12:59 48.96543 3.23296 13122 ft 359 kts 99°
2026-05-08 12:59 48.96222 3.27081 13742 ft 363 kts 99°
2026-05-08 12:59 48.95897 3.30898 14290 ft 366 kts 99°
2026-05-08 12:59 48.95566 3.34762 14825 ft 370 kts 99°
2026-05-08 13:00 48.95231 3.38653 15370 ft 373 kts 99°
2026-05-08 13:00 48.94890 3.42577 15902 ft 376 kts 99°
2026-05-08 13:00 48.94547 3.46486 16425 ft 379 kts 99°
2026-05-08 13:00 48.94194 3.50479 16953 ft 383 kts 99°
2026-05-08 13:01 48.93838 3.54509 17463 ft 386 kts 99°
2026-05-08 13:01 48.93527 3.58589 17981 ft 390 kts 97°
2026-05-08 13:01 48.93289 3.62717 18474 ft 394 kts 96°
2026-05-08 13:01 48.93091 3.66888 18898 ft 397 kts 95°
2026-05-08 13:02 48.92905 3.71084 19037 ft 398 kts 95°
2026-05-08 13:02 48.92717 3.75280 19071 ft 398 kts 95°
2026-05-08 13:02 48.92516 3.79472 19067 ft 397 kts 96°
2026-05-08 13:02 48.92301 3.83656 19066 ft 397 kts 96°
2026-05-08 13:03 48.92072 3.87846 19087 ft 398 kts 96°
2026-05-08 13:03 48.91837 3.92001 19549 ft 401 kts 96°
2026-05-08 13:03 48.91596 3.96229 20030 ft 403 kts 96°
2026-05-08 13:03 48.91353 4.00487 20504 ft 406 kts 96°
2026-05-08 13:04 48.91110 4.04773 20969 ft 408 kts 96°
2026-05-08 13:04 48.90866 4.09084 21433 ft 411 kts 96°
2026-05-08 13:04 48.90622 4.13429 21884 ft 414 kts 96°
2026-05-08 13:04 48.90368 4.17796 22323 ft 416 kts 98°
2026-05-08 13:05 48.89807 4.22105 22739 ft 417 kts 108°
2026-05-08 13:05 48.88798 4.26167 23143 ft 417 kts 118°
2026-05-08 13:05 48.87417 4.30045 23549 ft 419 kts 121°
2026-05-08 13:05 48.85992 4.33918 23896 ft 421 kts 121°
2026-05-08 13:06 48.84560 4.37813 24219 ft 424 kts 121°
2026-05-08 13:06 48.83122 4.41727 24560 ft 425 kts 121°
2026-05-08 13:06 48.81681 4.45660 24880 ft 428 kts 121°
2026-05-08 13:06 48.80232 4.49614 25183 ft 430 kts 121°
2026-05-08 13:07 48.78774 4.53587 25485 ft 432 kts 121°
2026-05-08 13:07 48.77309 4.57572 25788 ft 434 kts 121°
2026-05-08 13:07 48.75830 4.61580 26087 ft 437 kts 121°
2026-05-08 13:07 48.74360 4.65546 26373 ft 439 kts 121°
2026-05-08 13:08 48.72861 4.69585 26655 ft 441 kts 121°
2026-05-08 13:08 48.71355 4.73641 26935 ft 443 kts 121°
2026-05-08 13:08 48.69842 4.77711 27210 ft 445 kts 121°
2026-05-08 13:08 48.68321 4.81803 27506 ft 446 kts 121°
2026-05-08 13:09 48.66797 4.85894 27809 ft 447 kts 122°
2026-05-08 13:09 48.65266 4.89998 28076 ft 449 kts 121°
2026-05-08 13:09 48.63728 4.94121 28336 ft 451 kts 121°
2026-05-08 13:09 48.62205 4.98201 28585 ft 453 kts 121°
2026-05-08 13:10 48.60652 5.02348 28833 ft 455 kts 122°
2026-05-08 13:10 48.59086 5.06510 29067 ft 456 kts 122°
2026-05-08 13:10 48.57511 5.10680 29311 ft 458 kts 122°
2026-05-08 13:10 48.55930 5.14872 29538 ft 460 kts 122°
2026-05-08 13:11 48.54345 5.19072 29752 ft 462 kts 122°
2026-05-08 13:11 48.52752 5.23284 29977 ft 463 kts 122°
2026-05-08 13:11 48.51150 5.27507 30141 ft 465 kts 122°
2026-05-08 13:11 48.49539 5.31745 30317 ft 466 kts 122°
2026-05-08 13:12 48.47927 5.35980 30561 ft 466 kts 122°
2026-05-08 13:12 48.46341 5.40158 30784 ft 466 kts 122°
2026-05-08 13:12 48.44733 5.44399 31012 ft 466 kts 122°
2026-05-08 13:12 48.43125 5.48627 31224 ft 466 kts 122°
2026-05-08 13:13 48.41509 5.52853 31455 ft 466 kts 122°
2026-05-08 13:13 48.39888 5.57075 31676 ft 466 kts 122°
2026-05-08 13:13 48.38266 5.61294 31895 ft 466 kts 122°
2026-05-08 13:13 48.36649 5.65501 32176 ft 464 kts 122°
2026-05-08 13:14 48.35031 5.69703 32409 ft 464 kts 122°
2026-05-08 13:14 48.33413 5.73902 32632 ft 464 kts 122°
2026-05-08 13:14 48.31840 5.78060 32844 ft 465 kts 118°
2026-05-08 13:14 48.30561 5.82526 33042 ft 467 kts 110°
2026-05-08 13:15 48.29558 5.87165 33251 ft 467 kts 109°
2026-05-08 13:15 48.28553 5.91809 33454 ft 468 kts 109°
2026-05-08 13:15 48.27540 5.96452 33627 ft 469 kts 109°
2026-05-08 13:15 48.26523 6.01097 33818 ft 469 kts 109°
2026-05-08 13:16 48.25505 6.05747 34059 ft 468 kts 109°
2026-05-08 13:16 48.24486 6.10382 34249 ft 468 kts 109°
2026-05-08 13:16 48.23479 6.14957 34434 ft 468 kts 109°
2026-05-08 13:16 48.22459 6.19583 34596 ft 468 kts 109°
2026-05-08 13:17 48.21436 6.24221 34750 ft 468 kts 109°
2026-05-08 13:17 48.20414 6.28849 34932 ft 468 kts 109°
2026-05-08 13:17 48.18363 6.38096 35049 ft 467 kts 110°
2026-05-08 13:18 48.16311 6.47306 35043 ft 465 kts 110°
2026-05-08 13:18 48.14267 6.56418 35043 ft 465 kts 110°
2026-05-08 13:19 48.12206 6.65579 35042 ft 464 kts 110°
2026-05-08 13:19 48.10140 6.74737 35040 ft 464 kts 110°
2026-05-08 13:20 48.08065 6.83884 35037 ft 464 kts 110°
2026-05-08 13:20 48.06000 6.92965 35053 ft 464 kts 110°
2026-05-08 13:21 48.03905 7.02072 35062 ft 463 kts 111°
2026-05-08 13:21 48.01815 7.11174 35065 ft 463 kts 110°
2026-05-08 13:22 47.99724 7.20275 35062 ft 463 kts 110°
2026-05-08 13:22 47.97618 7.29359 35058 ft 463 kts 111°
2026-05-08 13:23 47.95517 7.38371 35061 ft 463 kts 111°
2026-05-08 13:23 47.93399 7.47437 35061 ft 463 kts 111°
2026-05-08 13:24 47.91266 7.56496 35051 ft 463 kts 111°
2026-05-08 13:24 47.89087 7.65525 35049 ft 463 kts 112°
2026-05-08 13:25 47.86816 7.74418 35052 ft 462 kts 113°
2026-05-08 13:25 47.84511 7.83353 35055 ft 462 kts 113°
2026-05-08 13:26 47.82225 7.92288 35058 ft 462 kts 113°
2026-05-08 13:26 47.79946 8.01217 35057 ft 462 kts 113°
2026-05-08 13:27 47.77657 8.10142 35057 ft 462 kts 113°
2026-05-08 13:27 47.75372 8.18993 35051 ft 462 kts 113°
2026-05-08 13:28 47.73067 8.27894 35050 ft 462 kts 113°
2026-05-08 13:28 47.70756 8.36793 35040 ft 462 kts 113°
2026-05-08 13:29 47.68441 8.45685 35044 ft 462 kts 113°
2026-05-08 13:29 47.66343 8.54703 35055 ft 463 kts 110°
2026-05-08 13:30 47.64394 8.63741 35059 ft 463 kts 110°
2026-05-08 13:30 47.62393 8.72815 35060 ft 463 kts 111°
2026-05-08 13:31 47.60322 8.81836 35061 ft 462 kts 111°
2026-05-08 13:31 47.58235 8.90842 35052 ft 462 kts 112°
2026-05-08 13:32 47.56170 8.99790 35055 ft 462 kts 112°
2026-05-08 13:32 47.54092 9.08797 35055 ft 462 kts 112°
2026-05-08 13:33 47.52010 9.17798 35052 ft 462 kts 112°
2026-05-08 13:33 47.49910 9.26787 35049 ft 462 kts 113°
2026-05-08 13:34 47.47818 9.35695 35054 ft 462 kts 113°
2026-05-08 13:34 47.45716 9.44662 35071 ft 462 kts 113°
2026-05-08 13:35 47.43606 9.53616 35070 ft 461 kts 113°
2026-05-08 13:35 47.41480 9.62553 35058 ft 461 kts 114°
2026-05-08 13:36 47.39941 9.71799 35061 ft 466 kts 105°
2026-05-08 13:36 47.38659 9.81104 35060 ft 466 kts 105°
2026-05-08 13:37 47.37355 9.90469 35044 ft 466 kts 105°
2026-05-08 13:37 47.36039 9.99826 35052 ft 465 kts 106°
2026-05-08 13:38 47.34721 10.09161 35067 ft 465 kts 106°
2026-05-08 13:38 47.33402 10.18433 35077 ft 465 kts 106°
2026-05-08 13:39 47.32079 10.27748 35074 ft 464 kts 106°
2026-05-08 13:39 47.30745 10.37053 35080 ft 464 kts 107°
2026-05-08 13:40 47.29400 10.46357 35069 ft 464 kts 107°
2026-05-08 13:40 47.28048 10.55590 35066 ft 464 kts 107°
2026-05-08 13:41 47.26687 10.64878 35053 ft 464 kts 107°
2026-05-08 13:41 47.25326 10.74153 35053 ft 464 kts 107°
2026-05-08 13:42 47.23957 10.83426 35031 ft 464 kts 108°
2026-05-08 13:42 47.22580 10.92704 35038 ft 464 kts 108°
2026-05-08 13:43 47.21204 11.01904 35034 ft 464 kts 108°
2026-05-08 13:43 47.19810 11.11168 35044 ft 463 kts 108°
2026-05-08 13:44 47.18406 11.20405 35009 ft 463 kts 108°
2026-05-08 13:44 47.16987 11.29635 34998 ft 463 kts 108°
2026-05-08 13:45 47.15582 11.38798 35007 ft 463 kts 108°
2026-05-08 13:45 47.14162 11.48025 35008 ft 463 kts 108°
2026-05-08 13:46 47.12731 11.57250 35012 ft 463 kts 108°
2026-05-08 13:46 47.11289 11.66465 35002 ft 463 kts 108°
2026-05-08 13:47 47.09849 11.75683 35014 ft 463 kts 108°
2026-05-08 13:47 47.08388 11.84832 35014 ft 462 kts 111°
2026-05-08 13:48 47.05941 11.93382 35030 ft 452 kts 122°
2026-05-08 13:48 47.03170 12.01659 35024 ft 452 kts 122°
2026-05-08 13:49 47.00395 12.09938 35023 ft 453 kts 122°
2026-05-08 13:49 46.97628 12.18160 35026 ft 453 kts 122°
2026-05-08 13:50 46.94846 12.26433 35070 ft 453 kts 122°
2026-05-08 13:50 46.92059 12.34696 35052 ft 453 kts 122°
2026-05-08 13:51 46.89257 12.42942 35049 ft 453 kts 122°
2026-05-08 13:51 46.86473 12.51134 35053 ft 453 kts 122°
2026-05-08 13:52 46.83655 12.59364 35047 ft 453 kts 122°
2026-05-08 13:52 46.80824 12.67600 35043 ft 454 kts 122°
2026-05-08 13:53 46.77995 12.75848 35011 ft 455 kts 122°
2026-05-08 13:53 46.75165 12.84052 35020 ft 457 kts 122°
2026-05-08 13:54 46.72293 12.92325 35025 ft 458 kts 122°
2026-05-08 13:54 46.69422 13.00614 35041 ft 459 kts 122°
2026-05-08 13:55 46.67026 13.07509 35034 ft 459 kts 123°
2026-05-08 13:56 46.62217 13.21279 35041 ft 459 kts 123°
2026-05-08 13:56 46.59316 13.29556 35057 ft 459 kts 123°
2026-05-08 13:57 46.56899 13.36405 35068 ft 457 kts 125°
2026-05-08 13:57 46.53304 13.43866 35051 ft 449 kts 133°
2026-05-08 13:58 46.49527 13.51077 35057 ft 449 kts 133°
2026-05-08 13:58 46.45751 13.58284 35062 ft 449 kts 133°
2026-05-08 13:59 46.42000 13.65443 35067 ft 449 kts 133°
2026-05-08 13:59 46.38220 13.72631 35064 ft 448 kts 133°
2026-05-08 14:00 46.34436 13.79806 35051 ft 448 kts 133°
2026-05-08 14:00 46.30650 13.86981 35057 ft 448 kts 133°
2026-05-08 14:01 46.26897 13.94079 35058 ft 448 kts 133°
2026-05-08 14:01 46.23105 14.01219 35060 ft 448 kts 133°
2026-05-08 14:02 46.19313 14.08352 35037 ft 448 kts 133°
2026-05-08 14:02 46.15519 14.15463 35056 ft 447 kts 133°
2026-05-08 14:03 46.11729 14.22553 35066 ft 446 kts 133°
2026-05-08 14:03 46.07957 14.29575 35065 ft 446 kts 133°
2026-05-08 14:04 46.04161 14.36630 35055 ft 445 kts 133°
2026-05-08 14:04 46.00367 14.43671 35043 ft 446 kts 133°
2026-05-08 14:05 45.96558 14.50720 35042 ft 447 kts 133°
2026-05-08 14:05 45.92764 14.57723 35045 ft 448 kts 133°
2026-05-08 14:06 45.88937 14.64778 35040 ft 448 kts 133°
2026-05-08 14:06 45.85098 14.71823 35044 ft 448 kts 133°
2026-05-08 14:07 45.81253 14.78852 35044 ft 448 kts 133°
2026-05-08 14:07 45.77443 14.85823 35055 ft 448 kts 133°
2026-05-08 14:08 45.73494 14.92684 35056 ft 443 kts 139°
2026-05-08 14:08 45.69228 14.99053 35053 ft 443 kts 139°
2026-05-08 14:09 45.64963 15.05418 35038 ft 443 kts 139°
2026-05-08 14:09 45.60694 15.11777 35044 ft 444 kts 139°
2026-05-08 14:10 45.56447 15.18090 35045 ft 444 kts 139°
2026-05-08 14:10 45.52169 15.24439 35041 ft 444 kts 139°
2026-05-08 14:11 45.47887 15.30784 35046 ft 444 kts 139°
2026-05-08 14:11 45.43603 15.37109 35047 ft 444 kts 139°
2026-05-08 14:12 45.39306 15.43421 35047 ft 444 kts 139°
2026-05-08 14:12 45.35044 15.49681 35050 ft 443 kts 139°
2026-05-08 14:13 45.30757 15.55975 35046 ft 443 kts 139°
2026-05-08 14:13 45.26467 15.62255 35029 ft 443 kts 139°
2026-05-08 14:14 45.22174 15.68507 35036 ft 442 kts 139°
2026-05-08 14:14 45.17885 15.74758 35037 ft 442 kts 139°
2026-05-08 14:15 45.13624 15.80954 35039 ft 442 kts 139°
2026-05-08 14:15 45.09326 15.87174 35040 ft 442 kts 139°
2026-05-08 14:16 45.05022 15.93381 35046 ft 442 kts 139°
2026-05-08 14:16 45.00719 15.99578 35039 ft 441 kts 139°
2026-05-08 14:17 44.96423 16.05768 35047 ft 441 kts 139°
2026-05-08 14:17 44.92149 16.11911 35049 ft 441 kts 139°
2026-05-08 14:18 44.87843 16.18079 35050 ft 441 kts 139°
2026-05-08 14:18 44.83530 16.24237 35042 ft 441 kts 139°
2026-05-08 14:19 44.79219 16.30399 35032 ft 442 kts 139°
2026-05-08 14:19 44.74926 16.36512 35034 ft 442 kts 139°
2026-05-08 14:20 44.70606 16.42654 35038 ft 441 kts 139°
2026-05-08 14:20 44.66283 16.48780 35029 ft 441 kts 139°
2026-05-08 14:21 44.61957 16.54887 35039 ft 441 kts 139°
2026-05-08 14:21 44.57636 16.60987 35042 ft 440 kts 139°
2026-05-08 14:22 44.53312 16.67070 35037 ft 440 kts 139°
2026-05-08 14:22 44.49016 16.73093 35039 ft 440 kts 139°
2026-05-08 14:23 44.44690 16.79150 35031 ft 440 kts 139°
2026-05-08 14:23 44.40365 16.85195 35032 ft 439 kts 139°
2026-05-08 14:24 44.36039 16.91232 35030 ft 439 kts 139°
2026-05-08 14:24 44.31711 16.97252 35021 ft 439 kts 139°
2026-05-08 14:25 44.27411 17.03221 34996 ft 439 kts 139°
2026-05-08 14:25 44.23067 17.09229 35001 ft 441 kts 139°
2026-05-08 14:26 44.18709 17.15254 35006 ft 442 kts 139°
2026-05-08 14:26 44.14347 17.21293 35007 ft 443 kts 139°
2026-05-08 14:27 44.09969 17.27333 35006 ft 443 kts 139°
2026-05-08 14:27 44.05610 17.33297 35012 ft 442 kts 139°
2026-05-08 14:28 44.01227 17.39294 35035 ft 442 kts 139°
2026-05-08 14:28 43.96862 17.45277 35038 ft 441 kts 139°
2026-05-08 14:29 43.92495 17.51241 35036 ft 440 kts 139°
2026-05-08 14:29 43.88125 17.57178 35033 ft 439 kts 139°
2026-05-08 14:30 43.83763 17.63100 35036 ft 439 kts 139°
2026-05-08 14:30 43.79431 17.68964 35035 ft 438 kts 139°
2026-05-08 14:31 43.75077 17.74861 35030 ft 438 kts 139°
2026-05-08 14:31 43.70724 17.80739 35025 ft 437 kts 139°
2026-05-08 14:32 43.64188 17.89529 35012 ft 438 kts 139°
2026-05-08 14:32 43.59857 17.95349 35009 ft 438 kts 139°
2026-05-08 14:33 43.55485 18.01204 35005 ft 438 kts 139°
2026-05-08 14:33 43.51108 18.07051 35001 ft 438 kts 139°
2026-05-08 14:34 43.46726 18.12891 35002 ft 439 kts 139°
2026-05-08 14:34 43.42339 18.18732 35004 ft 439 kts 139°
2026-05-08 14:35 43.37947 18.24575 35005 ft 439 kts 139°
2026-05-08 14:35 43.33577 18.30358 35011 ft 439 kts 139°
2026-05-08 14:36 43.29174 18.36180 35015 ft 439 kts 139°
2026-05-08 14:36 43.24771 18.41991 35018 ft 439 kts 139°
2026-05-08 14:37 43.20371 18.47792 35004 ft 439 kts 139°
2026-05-08 14:37 43.15996 18.53540 35009 ft 439 kts 139°
2026-05-08 14:38 43.11618 18.59354 35001 ft 439 kts 138°
2026-05-08 14:38 43.07329 18.65317 35004 ft 439 kts 137°
2026-05-08 14:39 43.03068 18.71298 34998 ft 439 kts 137°
2026-05-08 14:39 42.98780 18.77243 35003 ft 439 kts 137°
2026-05-08 14:40 42.94496 18.83122 34997 ft 440 kts 137°
2026-05-08 14:40 42.90176 18.89029 34995 ft 440 kts 137°
2026-05-08 14:41 42.85856 18.94938 34998 ft 440 kts 137°
2026-05-08 14:41 42.81535 19.00841 34991 ft 440 kts 137°
2026-05-08 14:42 42.77208 19.06742 34998 ft 441 kts 137°
2026-05-08 14:42 42.72902 19.12608 34987 ft 441 kts 137°
2026-05-08 14:43 42.68554 19.18507 34977 ft 442 kts 137°
2026-05-08 14:43 42.64192 19.24421 34977 ft 443 kts 137°
2026-05-08 14:44 42.59818 19.30332 34976 ft 444 kts 137°
2026-05-08 14:44 42.55463 19.36206 34976 ft 445 kts 137°
2026-05-08 14:45 42.51076 19.42123 34981 ft 445 kts 137°
2026-05-08 14:45 42.46680 19.48028 34976 ft 445 kts 137°
2026-05-08 14:46 42.42279 19.53923 34982 ft 445 kts 137°
2026-05-08 14:46 42.37900 19.59783 34989 ft 446 kts 137°
2026-05-08 14:47 42.33490 19.65673 34992 ft 446 kts 137°
2026-05-08 14:47 42.29077 19.71562 35002 ft 446 kts 137°
2026-05-08 14:48 42.24660 19.77434 35005 ft 446 kts 137°
2026-05-08 14:48 42.20275 19.83259 35013 ft 445 kts 137°
2026-05-08 14:49 42.15856 19.89098 35020 ft 444 kts 137°
2026-05-08 14:49 42.11441 19.94924 35020 ft 444 kts 137°
2026-05-08 14:50 42.07030 20.00739 35018 ft 444 kts 137°
2026-05-08 14:50 42.02617 20.06546 35006 ft 444 kts 137°
2026-05-08 14:51 41.98229 20.12315 35014 ft 445 kts 137°
2026-05-08 14:51 41.93799 20.18122 35008 ft 446 kts 137°
2026-05-08 14:52 41.87130 20.26835 35015 ft 446 kts 137°
2026-05-08 14:53 41.82682 20.32642 35016 ft 446 kts 137°
2026-05-08 14:53 41.78257 20.38402 35018 ft 447 kts 137°
2026-05-08 14:54 41.73791 20.44201 35028 ft 447 kts 137°
2026-05-08 14:54 41.69328 20.49983 35030 ft 446 kts 137°
2026-05-08 14:55 41.64693 20.55448 35036 ft 443 kts 143°
2026-05-08 14:55 41.59901 20.60513 35038 ft 442 kts 143°
2026-05-08 14:56 41.55077 20.65603 35036 ft 442 kts 143°
2026-05-08 14:56 41.50251 20.70676 35018 ft 442 kts 143°
2026-05-08 14:57 41.45421 20.75751 35027 ft 442 kts 143°
2026-05-08 14:57 41.40619 20.80780 35030 ft 442 kts 143°
2026-05-08 14:58 41.35784 20.85842 35040 ft 442 kts 143°
2026-05-08 14:58 41.30954 20.90902 35041 ft 442 kts 143°
2026-05-08 14:59 41.26119 20.95940 35036 ft 442 kts 143°
2026-05-08 14:59 41.18891 21.03447 35031 ft 442 kts 143°
2026-05-08 15:00 41.14048 21.08476 35027 ft 442 kts 143°
2026-05-08 15:00 41.09198 21.13498 35020 ft 442 kts 143°
2026-05-08 15:01 41.04343 21.18516 35017 ft 443 kts 143°
2026-05-08 15:01 40.99516 21.23498 35012 ft 443 kts 143°
2026-05-08 15:02 40.94649 21.28523 35009 ft 444 kts 143°
2026-05-08 15:02 40.89771 21.33527 35013 ft 444 kts 143°
2026-05-08 15:03 40.84846 21.38462 35013 ft 444 kts 145°
2026-05-08 15:03 40.79804 21.43177 35023 ft 444 kts 146°
2026-05-08 15:04 40.74774 21.47801 35020 ft 444 kts 146°
2026-05-08 15:04 40.69721 21.52480 35023 ft 444 kts 146°
2026-05-08 15:05 40.64683 21.57192 35027 ft 444 kts 146°
2026-05-08 15:05 40.59649 21.61904 35028 ft 444 kts 146°
2026-05-08 15:06 40.54643 21.66567 35039 ft 444 kts 146°
2026-05-08 15:06 40.49592 21.71246 35034 ft 445 kts 147°
2026-05-08 15:07 40.44516 21.75940 35042 ft 447 kts 147°
2026-05-08 15:07 40.39429 21.80652 35050 ft 448 kts 147°
2026-05-08 15:08 40.35181 21.84569 35055 ft 450 kts 147°
2026-05-08 15:08 40.29215 21.90050 35063 ft 452 kts 147°
2026-05-08 15:09 40.24066 21.94783 35048 ft 453 kts 149°
2026-05-08 15:09 40.18890 21.99530 35040 ft 455 kts 149°
2026-05-08 15:10 40.13694 22.04295 35034 ft 457 kts 149°
2026-05-08 15:10 40.08510 22.09031 35031 ft 458 kts 149°
2026-05-08 15:11 40.03286 22.13796 35011 ft 459 kts 149°
2026-05-08 15:11 39.98049 22.18568 35004 ft 460 kts 150°
2026-05-08 15:12 39.92801 22.23346 35023 ft 461 kts 150°
2026-05-08 15:12 39.87570 22.28087 35021 ft 461 kts 150°
2026-05-08 15:13 39.82297 22.32851 35025 ft 462 kts 150°
2026-05-08 15:13 39.77018 22.37618 35021 ft 462 kts 150°
2026-05-08 15:14 39.71733 22.42390 35003 ft 463 kts 151°
2026-05-08 15:14 39.66464 22.47128 34994 ft 464 kts 152°
2026-05-08 15:15 39.61160 22.51895 35016 ft 463 kts 152°
2026-05-08 15:15 39.55869 22.56652 35024 ft 463 kts 152°
2026-05-08 15:16 39.50573 22.61387 34991 ft 462 kts 152°
2026-05-08 15:16 39.45269 22.66115 34994 ft 463 kts 153°
2026-05-08 15:17 39.39990 22.70817 34999 ft 464 kts 153°
2026-05-08 15:17 39.34671 22.75555 35010 ft 465 kts 153°
2026-05-08 15:18 39.29346 22.80297 34992 ft 465 kts 153°
2026-05-08 15:18 39.24013 22.85027 34991 ft 466 kts 153°
2026-05-08 15:19 39.18673 22.89737 35024 ft 469 kts 153°
2026-05-08 15:19 39.13288 22.94488 35028 ft 469 kts 153°
2026-05-08 15:20 39.07903 22.99245 35029 ft 469 kts 153°
2026-05-08 15:20 39.02522 23.03986 35028 ft 469 kts 153°
2026-05-08 15:21 38.97131 23.08715 34976 ft 469 kts 153°
2026-05-08 15:21 38.91771 23.13413 34984 ft 470 kts 153°
2026-05-08 15:22 38.86364 23.18151 34990 ft 471 kts 153°
2026-05-08 15:22 38.80962 23.22875 34993 ft 470 kts 154°
2026-05-08 15:23 38.75548 23.27583 34993 ft 470 kts 154°
2026-05-08 15:23 38.70171 23.32270 34997 ft 472 kts 153°
2026-05-08 15:24 38.64731 23.36996 35007 ft 472 kts 153°
2026-05-08 15:24 38.59293 23.41710 35002 ft 472 kts 153°
2026-05-08 15:25 38.53854 23.46415 35007 ft 472 kts 153°
2026-05-08 15:25 38.48448 23.51079 35014 ft 472 kts 153°
2026-05-08 15:26 38.43002 23.55764 34992 ft 472 kts 153°
2026-05-08 15:26 38.37551 23.60459 35006 ft 473 kts 153°
2026-05-08 15:27 38.32101 23.65150 35012 ft 473 kts 153°
2026-05-08 15:27 38.26675 23.69799 35021 ft 473 kts 153°
2026-05-08 15:28 38.21213 23.74476 35023 ft 473 kts 153°
2026-05-08 15:28 38.15748 23.79147 35045 ft 473 kts 153°
2026-05-08 15:29 38.10287 23.83804 35054 ft 473 kts 153°
2026-05-08 15:29 38.04823 23.88450 35059 ft 473 kts 154°
2026-05-08 15:30 37.99394 23.93052 35057 ft 472 kts 154°
2026-05-08 15:30 37.93935 23.97684 35028 ft 472 kts 153°
2026-05-08 15:31 37.88476 24.02318 35041 ft 472 kts 153°
2026-05-08 15:31 37.83011 24.06933 35043 ft 472 kts 153°
2026-05-08 15:32 37.77542 24.11534 35052 ft 472 kts 153°
2026-05-08 15:32 37.72115 24.16105 35063 ft 472 kts 153°
2026-05-08 15:33 37.66650 24.20703 35038 ft 472 kts 153°
2026-05-08 15:33 37.61189 24.25288 35051 ft 471 kts 153°
2026-05-08 15:34 37.55722 24.29862 35071 ft 471 kts 153°
2026-05-08 15:34 37.50256 24.34284 35076 ft 469 kts 155°
2026-05-08 15:35 37.44700 24.38593 35072 ft 469 kts 155°
2026-05-08 15:35 37.39139 24.42882 35056 ft 469 kts 155°
2026-05-08 15:36 37.34528 24.46484 35058 ft 469 kts 155°
2026-05-08 15:36 37.28057 24.51564 35076 ft 469 kts 155°
2026-05-08 15:37 37.22556 24.55860 35081 ft 469 kts 155°
2026-05-08 15:37 37.17021 24.60174 35083 ft 468 kts 155°
2026-05-08 15:38 37.11482 24.64473 35069 ft 468 kts 155°
2026-05-08 15:38 37.05977 24.68742 35077 ft 468 kts 155°
2026-05-08 15:39 37.00439 24.73039 35086 ft 469 kts 155°
2026-05-08 15:39 36.94895 24.77330 35091 ft 469 kts 155°
2026-05-08 15:40 36.89347 24.81621 35096 ft 469 kts 155°
2026-05-08 15:40 36.83772 24.85924 34152 ft 478 kts 155°
2026-05-08 15:41 36.80980 24.88078 33452 ft 477 kts 155°
2026-05-08 15:41 36.78179 24.90251 32898 ft 472 kts 154°
2026-05-08 15:41 36.75403 24.92404 32320 ft 468 kts 154°
2026-05-08 15:41 36.72650 24.94533 31759 ft 464 kts 154°
2026-05-08 15:42 36.69912 24.96646 31196 ft 461 kts 154°
2026-05-08 15:42 36.67193 24.98740 30693 ft 458 kts 154°
2026-05-08 15:42 36.64492 25.00814 30174 ft 455 kts 154°
2026-05-08 15:42 36.61807 25.02869 29624 ft 451 kts 154°
2026-05-08 15:43 36.59187 25.04873 29133 ft 445 kts 154°
2026-05-08 15:43 36.56565 25.06879 28663 ft 440 kts 154°
2026-05-08 15:43 36.53971 25.08864 28188 ft 436 kts 154°
2026-05-08 15:43 36.51402 25.10830 27739 ft 431 kts 154°
2026-05-08 15:44 36.48857 25.12773 27287 ft 427 kts 154°
2026-05-08 15:44 36.46336 25.14694 26847 ft 423 kts 154°
2026-05-08 15:44 36.43839 25.16594 26420 ft 419 kts 154°
2026-05-08 15:44 36.41359 25.18476 25978 ft 416 kts 153°
2026-05-08 15:45 36.38897 25.20345 25540 ft 414 kts 153°
2026-05-08 15:45 36.36483 25.22181 25091 ft 412 kts 153°
2026-05-08 15:45 36.34046 25.24033 24620 ft 410 kts 153°
2026-05-08 15:45 36.31619 25.25875 24170 ft 408 kts 153°
2026-05-08 15:46 36.29203 25.27707 23707 ft 407 kts 153°
2026-05-08 15:46 36.26795 25.29535 23176 ft 405 kts 153°
2026-05-08 15:46 36.24401 25.31351 22708 ft 402 kts 153°
2026-05-08 15:46 36.22022 25.33153 22233 ft 400 kts 153°
2026-05-08 15:47 36.19657 25.34941 21773 ft 397 kts 153°
2026-05-08 15:47 36.17337 25.36693 21318 ft 395 kts 153°
2026-05-08 15:47 36.14943 25.38303 20861 ft 388 kts 163°
2026-05-08 15:47 36.12399 25.39248 20421 ft 377 kts 176°
2026-05-08 15:48 36.07340 25.39092 19544 ft 356 kts 200°
2026-05-08 15:48 36.04940 25.38404 19139 ft 353 kts 200°
2026-05-08 15:48 36.02554 25.37725 18724 ft 351 kts 200°
2026-05-08 15:49 36.00174 25.37049 18294 ft 350 kts 200°
2026-05-08 15:49 35.97860 25.36397 17854 ft 339 kts 200°
2026-05-08 15:49 35.95557 25.35872 17474 ft 339 kts 191°
2026-05-08 15:49 35.93170 25.36008 17054 ft 349 kts 176°
2026-05-08 15:50 35.90830 25.36929 16623 ft 359 kts 159°
2026-05-08 15:50 35.88715 25.38619 16186 ft 367 kts 145°
2026-05-08 15:50 35.86733 25.40603 15757 ft 367 kts 145°
2026-05-08 15:50 35.84747 25.42583 15310 ft 368 kts 145°
2026-05-08 15:51 35.82752 25.44563 14861 ft 368 kts 146°
2026-05-08 15:51 35.80780 25.46513 14426 ft 369 kts 146°
2026-05-08 15:51 35.78774 25.48493 13972 ft 370 kts 146°
2026-05-08 15:51 35.76765 25.50479 13482 ft 370 kts 146°
2026-05-08 15:52 35.74760 25.52463 13020 ft 369 kts 146°
2026-05-08 15:52 35.72767 25.54434 12551 ft 363 kts 145°
2026-05-08 15:52 35.70839 25.56347 12122 ft 350 kts 145°
2026-05-08 15:52 35.68977 25.58195 11718 ft 342 kts 146°
2026-05-08 15:53 35.67130 25.60017 11443 ft 336 kts 146°
2026-05-08 15:53 35.65321 25.61799 11136 ft 330 kts 146°
2026-05-08 15:53 35.63536 25.63556 10535 ft 327 kts 146°
2026-05-08 15:53 35.61743 25.65113 10105 ft 311 kts 162°
2026-05-08 15:54 35.59749 25.65552 9726 ft 279 kts 196°
2026-05-08 15:54 35.58075 25.64663 9401 ft 253 kts 231°
2026-05-08 15:54 35.57119 25.62953 9108 ft 241 kts 246°
2026-05-08 15:54 35.56283 25.61164 8811 ft 241 kts 244°
2026-05-08 15:55 35.55410 25.59407 8510 ft 241 kts 244°
2026-05-08 15:55 35.53629 25.55925 7778 ft 240 kts 243°
2026-05-08 15:55 35.52750 25.54217 7463 ft 240 kts 243°
2026-05-08 15:56 35.51859 25.52487 7149 ft 240 kts 243°
2026-05-08 15:56 35.50971 25.50756 6826 ft 239 kts 243°
2026-05-08 15:56 35.50083 25.49028 6506 ft 239 kts 243°
2026-05-08 15:56 35.49198 25.47306 6162 ft 239 kts 242°
2026-05-08 15:57 35.48313 25.45581 5823 ft 239 kts 242°
2026-05-08 15:57 35.47430 25.43861 5497 ft 238 kts 242°
2026-05-08 15:57 35.46541 25.42157 5212 ft 235 kts 237°
2026-05-08 15:57 35.45344 25.40882 5153 ft 235 kts 211°
2026-05-08 15:58 35.43756 25.40427 5056 ft 238 kts 181°
2026-05-08 15:58 35.42159 25.40980 4942 ft 244 kts 154°
2026-05-08 15:58 35.40677 25.42004 4813 ft 244 kts 153°
2026-05-08 15:58 35.39201 25.43028 4686 ft 244 kts 154°
2026-05-08 15:59 35.37659 25.43797 4551 ft 235 kts 179°
2026-05-08 15:59 35.36126 25.43414 4438 ft 224 kts 215°
2026-05-08 15:59 35.35045 25.42067 3915 ft 226 kts 245°
2026-05-08 15:59 35.34417 25.40343 3666 ft 221 kts 248°
2026-05-08 16:00 35.33837 25.38604 3359 ft 221 kts 250°
2026-05-08 16:00 35.33297 25.36847 3001 ft 218 kts 250°
2026-05-08 16:00 35.32927 25.35115 2780 ft 204 kts 265°
2026-05-08 16:00 35.32965 25.33407 2562 ft 198 kts 273°
2026-05-08 16:01 35.33068 25.31741 2299 ft 194 kts 273°
2026-05-08 16:01 35.33175 25.30165 2147 ft 177 kts 273°
2026-05-08 16:01 35.33270 25.28703 1843 ft 165 kts 271°
2026-05-08 16:01 35.33367 25.27369 1510 ft 156 kts 271°
2026-05-08 16:02 35.33459 25.26083 1226 ft 150 kts 271°
2026-05-08 16:02 35.33545 25.24822 997 ft 148 kts 271°
2026-05-08 16:02 35.33624 25.23568 840 ft 147 kts 272°
2026-05-08 16:02 35.33703 25.22323 652 ft 147 kts 272°
2026-05-08 16:03 35.33768 25.21096 469 ft 143 kts 272°
2026-05-08 16:03 35.33850 25.19879 270 ft 142 kts 271°
2026-05-08 16:03 35.33933 25.18681 95 ft 137 kts 268°
2026-05-08 16:03 35.33997 25.17669 92 ft 90 kts 274°
2026-05-08 16:04 35.34024 25.17271 90 ft 18 kts 275°
2026-05-08 16:04 35.33998 25.17126 90 ft 19 kts 240°
2026-05-08 16:04 35.33965 25.17071 92 ft 5 kts 209°
2026-05-08 16:04 35.33945 25.17082 90 ft 2 kts 132°
2026-05-08 16:05 35.33942 25.17093 91 ft 1 kts 104°
2026-05-08 16:05 35.33940 25.17133 91 ft 6 kts 95°
2026-05-08 16:05 35.33937 25.17174 90 ft 4 kts 95°
2026-05-08 16:05 35.33933 25.17231 91 ft 11 kts 97°
2026-05-08 16:06 35.33921 25.17359 91 ft 17 kts 94°
2026-05-08 16:06 35.33903 25.17493 92 ft 15 kts 136°
2026-05-08 16:06 35.33811 25.17495 91 ft 9 kts 194°
2026-05-08 16:06 35.33806 25.17434 91 ft 7 kts 301°
2026-05-08 16:07 35.33822 25.17414 91 ft 0 kts 316°
2026-05-08 16:07 35.33822 25.17413 94 ft 0 kts 316°